When you browse on this site, cookies collect data to enhance your experience and personalize the content and advertising you see.
Visit our Privacy Policy to learn more. By continuing to use the site, you agree to this use of cookies and data.
  • In Hungary
  • List of Countries
  • For 7 days
  • Water Temperature
  • Satellite Maps
  • Weather Map
  • News
  • Weather Widgets
  • user-avatar
    Login

    Hourly Weather Mongu

    Today, 18 January, Friday

    Time Temperature Precipitation Wind Pressure Humidity
    00:00 +21°C° 0.6 mm 2 mps 673 mmHg 90%
    01:00 +21°C° 0.6 mm 2 mps 673 mmHg 92%
    02:00 +21°C° 0 mm 2 mps 673 mmHg 92%
    03:00 +21°C° 0.2 mm 2 mps 673 mmHg 93%
    04:00 +21°C° 0.2 mm 2 mps 672 mmHg 93%
    05:00 +20°C° 0.2 mm 2 mps 672 mmHg 94%
    06:00 +21°C° 0.1 mm 2 mps 673 mmHg 92%
    07:00 +21°C° 0.1 mm 3 mps 673 mmHg 90%
    08:00 +22°C° 0 mm 3 mps 674 mmHg 87%
    09:00 +25°C° 1.2 mm 3 mps 674 mmHg 82%
    10:00 +26°C° 1.2 mm 4 mps 674 mmHg 77%
    11:00 +27°C° 1.2 mm 4 mps 674 mmHg 73%
    12:00 +28°C° 1.8 mm 3 mps 673 mmHg 69%
    13:00 +29°C° 1.8 mm 3 mps 673 mmHg 65%
    14:00 +30°C° 0 mm 3 mps 673 mmHg 58%
    15:00 +30°C° 0.1 mm 2 mps 673 mmHg 57%
    16:00 +30°C° 0.1 mm 2 mps 672 mmHg 57%
    17:00 +30°C° 0.1 mm 2 mps 672 mmHg 56%
    18:00 +28°C° 0 mm 2 mps 672 mmHg 62%
    19:00 +26°C° 0 mm 1 mps 672 mmHg 68%
    20:00 +25°C° 0 mm 1 mps 672 mmHg 73%
    21:00 +24°C° 0 mm 1 mps 672 mmHg 76%
    22:00 +24°C° 0 mm 2 mps 672 mmHg 79%
    23:00 +23°C° 0 mm 2 mps 672 mmHg 82%

    Tomorrow, 19 January, Saturday

    Time Temperature Precipitation Wind Pressure Humidity
    00:00 +23°C° 0 mm 2 mps 672 mmHg 83%
    01:00 +21°C° 0 mm 2 mps 672 mmHg 85%
    02:00 +21°C° 0 mm 2 mps 672 mmHg 87%
    03:00 +21°C° 0 mm 2 mps 672 mmHg 88%
    04:00 +20°C° 0 mm 2 mps 672 mmHg 89%
    05:00 +20°C° 0 mm 2 mps 672 mmHg 90%
    06:00 +21°C° 0 mm 2 mps 672 mmHg 86%
    07:00 +23°C° 0 mm 2 mps 673 mmHg 81%
    08:00 +24°C° 0 mm 2 mps 673 mmHg 77%
    09:00 +26°C° 0.3 mm 3 mps 674 mmHg 70%
    10:00 +28°C° 0.3 mm 3 mps 674 mmHg 64%
    11:00 +30°C° 0.3 mm 3 mps 675 mmHg 57%
    12:00 +31°C° 0.4 mm 3 mps 674 mmHg 54%
    13:00 +31°C° 0.4 mm 3 mps 674 mmHg 51%
    14:00 +32°C° 0.4 mm 2 mps 674 mmHg 48%
    15:00 +31°C° 0.1 mm 2 mps 673 mmHg 49%
    16:00 +31°C° 0.1 mm 2 mps 673 mmHg 50%
    17:00 +31°C° 0.1 mm 2 mps 673 mmHg 52%
    18:00 +29°C° 0.2 mm 2 mps 673 mmHg 61%
    19:00 +27°C° 0.2 mm 2 mps 672 mmHg 70%
    20:00 +25°C° 0.2 mm 3 mps 672 mmHg 80%
    21:00 +24°C° 0 mm 2 mps 673 mmHg 82%
    22:00 +24°C° 0 mm 2 mps 673 mmHg 84%
    23:00 +23°C° 0 mm 2 mps 674 mmHg 86%

    Day after tomorrow, 20 January, Sunday

    Time Temperature Precipitation Wind Pressure Humidity
    00:00 +23°C° 0 mm 1 mps 673 mmHg 88%
    01:00 +22°C° 0 mm 1 mps 673 mmHg 90%
    02:00 +22°C° 0 mm 1 mps 673 mmHg 92%
    03:00 +22°C° 0 mm 1 mps 673 mmHg 92%
    04:00 +22°C° 0 mm 1 mps 673 mmHg 92%
    05:00 +22°C° 0 mm 1 mps 672 mmHg 92%
    06:00 +22°C° 0 mm 1 mps 673 mmHg 90%
    07:00 +23°C° 0 mm 2 mps 673 mmHg 87%
    08:00 +24°C° 0 mm 2 mps 674 mmHg 84%
    09:00 +26°C° 0 mm 2 mps 674 mmHg 75%
    10:00 +28°C° 0 mm 2 mps 675 mmHg 66%
    11:00 +30°C° 0 mm 2 mps 675 mmHg 57%
    12:00 +30°C° 1.6 mm 2 mps 675 mmHg 56%
    13:00 +30°C° 1.6 mm 1 mps 674 mmHg 55%
    14:00 +31°C° 1.6 mm 1 mps 674 mmHg 54%
    15:00 +31°C° 0 mm 1 mps 673 mmHg 53%
    16:00 +30°C° 0 mm 1 mps 673 mmHg 52%
    17:00 +30°C° 0 mm 1 mps 673 mmHg 51%
    18:00 +29°C° 0 mm 1 mps 673 mmHg 55%
    19:00 +28°C° 0 mm 1 mps 673 mmHg 59%
    20:00 +26°C° 0 mm 1 mps 673 mmHg 63%
    21:00 +25°C° 1.7 mm 1 mps 674 mmHg 71%
    22:00 +24°C° 1.7 mm 1 mps 674 mmHg 79%
    23:00 +23°C° 1.7 mm 2 mps 675 mmHg 87%

    21 January, Monday

    Time Temperature Precipitation Wind Pressure Humidity
    00:00 +23°C° 0.2 mm 1 mps 674 mmHg 87%
    01:00 +23°C° 0.2 mm 1 mps 674 mmHg 87%
    02:00 +23°C° 0.2 mm 1 mps 674 mmHg 87%
    03:00 +23°C° 0 mm 1 mps 674 mmHg 88%
    04:00 +22°C° 0 mm 1 mps 674 mmHg 89%
    05:00 +22°C° 0 mm 1 mps 674 mmHg 91%
    06:00 +23°C° 0.1 mm 1 mps 674 mmHg 88%
    07:00 +23°C° 0.1 mm 1 mps 675 mmHg 86%
    08:00 +24°C° 0.1 mm 1 mps 675 mmHg 84%
    09:00 +25°C° 0.7 mm 1 mps 675 mmHg 78%
    10:00 +26°C° 0.7 mm 2 mps 676 mmHg 73%
    11:00 +28°C° 0.7 mm 2 mps 676 mmHg 67%
    12:00 +29°C° 0.5 mm 2 mps 675 mmHg 63%
    13:00 +30°C° 0.5 mm 2 mps 675 mmHg 58%
    14:00 +30°C° 0.5 mm 2 mps 674 mmHg 54%
    15:00 +31°C° 0 mm 2 mps 673 mmHg 53%
    16:00 +31°C° 0 mm 3 mps 673 mmHg 53%
    17:00 +31°C° 0 mm 3 mps 672 mmHg 52%
    18:00 +29°C° 0 mm 2 mps 673 mmHg 58%
    19:00 +27°C° 0 mm 2 mps 673 mmHg 65%
    20:00 +25°C° 0 mm 1 mps 673 mmHg 71%
    21:00 +25°C° 0 mm 1 mps 673 mmHg 72%
    22:00 +24°C° 0 mm 1 mps 674 mmHg 73%
    23:00 +24°C° 0 mm 1 mps 674 mmHg 74%

    22 January, Tuesday

    Time Temperature Precipitation Wind Pressure Humidity
    00:00 +23°C° 0 mm 1 mps 674 mmHg 76%
    01:00 +23°C° 0 mm 1 mps 673 mmHg 79%
    02:00 +22°C° 0 mm 1 mps 673 mmHg 82%
    03:00 +22°C° 0 mm 1 mps 673 mmHg 84%
    04:00 +21°C° 0 mm 1 mps 673 mmHg 87%
    05:00 +21°C° 0 mm 1 mps 673 mmHg 90%
    06:00 +22°C° 0 mm 1 mps 673 mmHg 85%
    07:00 +23°C° 0 mm 1 mps 674 mmHg 81%
    08:00 +24°C° 0 mm 1 mps 674 mmHg 77%
    09:00 +26°C° 0 mm 1 mps 675 mmHg 66%
    10:00 +28°C° 0 mm 2 mps 675 mmHg 55%
    11:00 +30°C° 0 mm 2 mps 675 mmHg 44%
    12:00 +31°C° 0 mm 2 mps 675 mmHg 38%
    13:00 +32°C° 0 mm 2 mps 674 mmHg 33%
    14:00 +34°C° 0 mm 2 mps 673 mmHg 28%
    15:00 +34°C° 0 mm 2 mps 673 mmHg 28%
    16:00 +34°C° 0 mm 3 mps 672 mmHg 29%
    17:00 +34°C° 0 mm 3 mps 672 mmHg 29%
    18:00 +30°C° 0 mm 2 mps 671 mmHg 34%
    19:00 +28°C° 0 mm 1 mps 671 mmHg 39%
    20:00 +26°C° 0 mm 1 mps 671 mmHg 43%
    21:00 +25°C° 0 mm 1 mps 672 mmHg 44%
    22:00 +24°C° 0 mm 1 mps 672 mmHg 46%
    23:00 +23°C° 0 mm 1 mps 672 mmHg 47%

    23 January, Wednesday

    Time Temperature Precipitation Wind Pressure Humidity
    00:00 +23°C° 0 mm 1 mps 672 mmHg 50%
    01:00 +22°C° 0 mm 1 mps 672 mmHg 53%
    02:00 +22°C° 0 mm 1 mps 671 mmHg 56%
    03:00 +21°C° 0 mm 1 mps 671 mmHg 59%
    04:00 +20°C° 0 mm 1 mps 671 mmHg 62%
    05:00 +20°C° 0 mm 1 mps 671 mmHg 65%
    06:00 +21°C° 0 mm 1 mps 672 mmHg 64%
    07:00 +22°C° 0 mm 1 mps 672 mmHg 62%
    08:00 +24°C° 0 mm 1 mps 673 mmHg 60%
    09:00 +26°C° 0 mm 1 mps 673 mmHg 53%
    10:00 +29°C° 0 mm 2 mps 674 mmHg 46%
    11:00 +31°C° 0 mm 2 mps 674 mmHg 39%
    12:00 +33°C° 0 mm 1 mps 674 mmHg 34%
    13:00 +35°C° 0 mm 1 mps 674 mmHg 29%
    14:00 +36°C° 0 mm 0 mps 673 mmHg 24%
    15:00 +35°C° 0 mm 0 mps 673 mmHg 24%
    16:00 +36°C° 0 mm 1 mps 672 mmHg 24%
    17:00 +35°C° 0 mm 1 mps 671 mmHg 24%
    18:00 +32°C° 0 mm 1 mps 671 mmHg 29%
    19:00 +30°C° 0 mm 1 mps 671 mmHg 35%
    20:00 +27°C° 0 mm 2 mps 671 mmHg 40%
    21:00 +26°C° 0 mm 2 mps 671 mmHg 45%
    22:00 +25°C° 0 mm 2 mps 671 mmHg 50%
    23:00 +24°C° 0 mm 3 mps 672 mmHg 55%
    Show more